This is the latest recevied weather packets stored in our database for station/object KF6GPE. If no packets are shown the sender has not sent any weather packets the latest 10 day(s).
| Time | Temp. | Humidity | Pressure | Rain* | Wind** | Luminosity | Snow |
|---|---|---|---|---|---|---|---|
| 1777600803 | 15° C | 78% | 986.5 hPa | 0 mm | - | 1001 W/m² | - |
| 1777599603 | 15.56° C | 75% | 986.5 hPa | 0 mm | - | 1001 W/m² | - |
| 1777599003 | 16.67° C | 73% | 986.5 hPa | 0 mm | - | 1001 W/m² | - |
| 1777598404 | 17.22° C | 70% | 986.4 hPa | 0 mm | - | 1001 W/m² | - |
| 1777597803 | 17.78° C | 67% | 986.2 hPa | 0 mm | - | 1001 W/m² | - |
| 1777597203 | 18.33° C | 64% | 986.2 hPa | 0 mm | - | 1001 W/m² | - |
| 1777596603 | 18.89° C | 61% | 986 hPa | 0 mm | - | 1001 W/m² | - |
| 1777596003 | 18.89° C | 60% | 986.1 hPa | 0 mm | - | 1002 W/m² | - |
| 1777595403 | 19.44° C | 60% | 986 hPa | 0 mm | - | 1002 W/m² | - |
| 1777594803 | 20° C | 55% | 986 hPa | 0 mm | - | 1002 W/m² | - |
| 1777594203 | 20° C | 55% | 986.1 hPa | 0 mm | - | 1002 W/m² | - |
| 1777593603 | 20° C | 52% | 986.1 hPa | 0 mm | - | 1002 W/m² | - |
| 1777593002 | 20° C | 50% | 986.1 hPa | 0 mm | - | 1001 W/m² | - |
| 1777591803 | 20.56° C | 53% | 986.1 hPa | 0 mm | - | 1003 W/m² | - |
| 1777591204 | 21.11° C | 56% | 986.1 hPa | 0 mm | - | 1004 W/m² | - |
| 1777590604 | 21.67° C | 56% | 986.2 hPa | 0 mm | - | 1059 W/m² | - |
| 1777590003 | 21.67° C | 56% | 986.2 hPa | 0 mm | - | 1063 W/m² | - |
| 1777589403 | 22.22° C | 60% | 986.4 hPa | 0 mm | - | 1066 W/m² | - |
| 1777588803 | 22.22° C | 60% | 986.4 hPa | 0 mm | - | 1069 W/m² | - |
| 1777587604 | 22.22° C | 61% | 986.6 hPa | 0 mm | - | 1075 W/m² | - |
| 1777586403 | 22.78° C | 61% | 986.7 hPa | 0 mm | - | 1080 W/m² | - |
| 1777585803 | 22.22° C | 62% | 986.7 hPa | 0 mm | - | 1083 W/m² | - |
| 1777585203 | 22.78° C | 60% | 986.8 hPa | 0 mm | - | 1084 W/m² | - |
| 1777584003 | 23.33° C | 59% | 986.8 hPa | 0 mm | - | 1088 W/m² | - |
| 1777583403 | 23.33° C | 59% | 986.8 hPa | 0 mm | - | 1090 W/m² | - |
* Rain latest hour (hover to see other rain measurements)
** Current wind speed in m/s (hover to see current wind gust speed)